STARLINK-1908 (46747 NORAD) Tracking and Keplerian Element Data

This shows tracking and keplerian element data for the satellite.

Feedback or suggestion? Click here.




ElementValue
Catalog46747
NameSTARLINK-1908
Epoch Orbit181
Epoch Day330.91667824
Epoch Year2020
RAAN1.9807
Inclination53.0549
Eccentricity0.0001193
Argument of Perigee72.1096
Mean Anonmoly176.8259
Mean Motion15.62795974
Decay Rate-0.0002878
L11 46747U 20074J 20330.91667824 -.00028780 00000-0 -30908-3 0 9992
L22 46747 53.0549 1.9807 0001193 72.1096 176.8259 15.62795974 1813

Live tracking and technical data element details for STARLINK-1908 (NORAD 46747). STARLINK-1908 can be tracked NOW for your location showing map with azimuth and elevation plus other details from your city location.

Track the satellite on the map from your city or location and see movement details for azimuth, elevation, latitude, longitude, range, height, and movement on the map or in text.







IsCatalogInMostPopularTable: catalog: 46747, numindb: 7
Update: records affected: 1



GetName: 46747 STARLINK-1908

Hit Count: updated at: Thu, 26 Nov 2020 18:15:33 GMT